International Skating Union - Official Site

ISU World Cup Hamar
January 31 - February 1, 2015

Draw | Lap Times | Index | World Cup

Referee: Karl  SKOOG  (SWE)
Starter: Jan  ZWIER  (NED)
StartTime: EndTime: Air Temp: Ice Temp: Humidity:
10:30 12:14 16.6℃ -6.7℃ 25.5%
Result 5000m Men Division B
Rankings as of Jan 31 2015 2:58PM
Rank: No.: Name: Nation: Time: Behind: Points:
1 122 Alexis  Contin FRA FRA 6:23.68200m - 18.48 - (18.4)
600m - 47.39 - (28.9)
1000m - 1:17.02 - (29.6)
1400m - 1:46.94 - (29.9)
1800m - 2:16.99 - (30.0)
2200m - 2:47.10 - (30.1)
2600m - 3:17.25 - (30.1)
3000m - 3:47.57 - (30.3)
3400m - 4:18.07 - (30.5)
3800m - 4:48.82 - (30.7)
4200m - 5:19.84 - (31.0)
4600m - 5:51.33 - (31.4)
5000m - 6:23.68 - (32.3)
32
2 147 Jos  de Vos NED NED 6:26.75200m - 18.88 - (18.8)
600m - 48.52 - (29.6)
1000m - 1:18.54 - (30.0)
1400m - 1:48.80 - (30.2)
1800m - 2:19.14 - (30.3)
2200m - 2:49.43 - (30.2)
2600m - 3:19.84 - (30.4)
3000m - 3:50.66 - (30.8)
3400m - 4:21.61 - (30.9)
3800m - 4:52.66 - (31.0)
4200m - 5:24.00 - (31.3)
4600m - 5:55.27 - (31.2)
5000m - 6:26.75 - (31.4)
3.07 27
3 171 Danil  Sinitsyn RUS RUS 6:29.87200m - 19.55 - (19.5)
600m - 49.72 - (30.1)
1000m - 1:19.70 - (29.9)
1400m - 1:49.38 - (29.6)
1800m - 2:19.28 - (29.9)
2200m - 2:49.15 - (29.8)
2600m - 3:19.34 - (30.1)
3000m - 3:49.54 - (30.2)
3400m - 4:20.35 - (30.8)
3800m - 4:51.69 - (31.3)
4200m - 5:23.82 - (32.1)
4600m - 5:55.25 - (31.4)
5000m - 6:29.87 - (34.6)
6.19 23
4 163 Konrad  Niedzwiedzki POL POL 6:31.26200m - 19.22 - (19.2)
600m - 49.42 - (30.2)
1000m - 1:19.98 - (30.5)
1400m - 1:50.86 - (30.8)
1800m - 2:21.52 - (30.6)
2200m - 2:52.65 - (31.1)
2600m - 3:23.61 - (30.9)
3000m - 3:54.67 - (31.0)
3400m - 4:25.69 - (31.0)
3800m - 4:57.10 - (31.4)
4200m - 5:28.59 - (31.4)
4600m - 6:00.13 - (31.5)
5000m - 6:31.26 - (31.1)
7.58 19
5 156 Simen  Spieler Nilsen NOR NOR 6:32.35200m - 18.81 - (18.8)
600m - 49.02 - (30.2)
1000m - 1:20.09 - (31.0)
1400m - 1:50.74 - (30.6)
1800m - 2:21.90 - (31.1)
2200m - 2:53.13 - (31.2)
2600m - 3:24.16 - (31.0)
3000m - 3:55.37 - (31.2)
3400m - 4:26.51 - (31.1)
3800m - 4:57.83 - (31.3)
4200m - 5:29.15 - (31.3)
4600m - 6:00.52 - (31.3)
5000m - 6:32.35 - (31.8)
8.67 15
6 126 Jonas  Pflug GER GER 6:33.34200m - 19.00 - (19.0)
600m - 49.42 - (30.4)
1000m - 1:20.03 - (30.6)
1400m - 1:50.62 - (30.5)
1800m - 2:21.27 - (30.6)
2200m - 2:51.78 - (30.5)
2600m - 3:22.62 - (30.8)
3000m - 3:53.74 - (31.1)
3400m - 4:25.09 - (31.3)
3800m - 4:56.57 - (31.4)
4200m - 5:28.51 - (31.9)
4600m - 6:00.70 - (32.1)
5000m - 6:33.34 - (32.6)
9.66 11
7 124 Alexej  Baumgärtner GER GER 6:33.37200m - 19.19 - (19.1)
600m - 49.42 - (30.2)
1000m - 1:21.18 - (31.7)
1400m - 1:52.55 - (31.3)
1800m - 2:23.74 - (31.1)
2200m - 2:54.63 - (30.8)
2600m - 3:25.88 - (31.2)
3000m - 3:56.91 - (31.0)
3400m - 4:28.19 - (31.2)
3800m - 4:59.43 - (31.2)
4200m - 5:30.86 - (31.4)
4600m - 6:02.25 - (31.3)
5000m - 6:33.37 - (31.1)
9.69 9
8 154 Fredrik  van der Horst NOR NOR 6:33.63200m - 19.28 - (19.2)
600m - 49.76 - (30.4)
1000m - 1:20.14 - (30.3)
1400m - 1:50.75 - (30.6)
1800m - 2:21.57 - (30.8)
2200m - 2:52.32 - (30.7)
2600m - 3:23.18 - (30.8)
3000m - 3:54.17 - (30.9)
3400m - 4:25.12 - (30.9)
3800m - 4:56.51 - (31.3)
4200m - 5:28.74 - (32.2)
4600m - 6:01.19 - (32.4)
5000m - 6:33.63 - (32.4)
9.95 7
9 127 Marco  Weber GER GER 6:34.85200m - 19.48 - (19.4)
600m - 50.31 - (30.8)
1000m - 1:21.21 - (30.9)
1400m - 1:51.86 - (30.6)
1800m - 2:22.55 - (30.6)
2200m - 2:53.40 - (30.8)
2600m - 3:24.50 - (31.1)
3000m - 3:55.86 - (31.3)
3400m - 4:27.31 - (31.4)
3800m - 4:58.99 - (31.6)
4200m - 5:30.94 - (31.9)
4600m - 6:02.94 - (32.0)
5000m - 6:34.85 - (31.9)
11.17 6
10 166 Sergey  Gryaztsov RUS RUS 6:34.93200m - 18.76 - (18.7)
600m - 48.27 - (29.5)
1000m - 1:18.93 - (30.6)
1400m - 1:49.89 - (30.9)
1800m - 2:21.05 - (31.1)
2200m - 2:51.85 - (30.8)
2600m - 3:22.83 - (30.9)
3000m - 3:53.97 - (31.1)
3400m - 4:25.58 - (31.6)
3800m - 4:57.38 - (31.8)
4200m - 5:29.77 - (32.3)
4600m - 6:02.23 - (32.4)
5000m - 6:34.93 - (32.7)
11.25 5
11 160 Zbigniew  Brodka POL POL 6:34.94200m - 18.60 - (18.6)
600m - 47.41 - (28.8)
1000m - 1:18.14 - (30.7)
1400m - 1:48.95 - (30.8)
1800m - 2:19.95 - (31.0)
2200m - 2:50.49 - (30.5)
2600m - 3:21.80 - (31.3)
3000m - 3:53.00 - (31.2)
3400m - 4:24.30 - (31.3)
3800m - 4:55.77 - (31.4)
4200m - 5:27.69 - (31.9)
4600m - 6:00.55 - (32.8)
5000m - 6:34.94 - (34.3)
11.26 4
12 111 Denny  Morrison CAN CAN 6:35.09200m - 19.21 - (19.2)
600m - 49.90 - (30.6)
1000m - 1:21.03 - (31.1)
1400m - 1:52.10 - (31.0)
1800m - 2:23.19 - (31.0)
2200m - 2:54.34 - (31.1)
2600m - 3:25.38 - (31.0)
3000m - 3:56.30 - (30.9)
3400m - 4:27.41 - (31.1)
3800m - 4:58.96 - (31.5)
4200m - 5:30.65 - (31.6)
4600m - 6:02.68 - (32.0)
5000m - 6:35.09 - (32.4)
11.41 3
13 157 Ole  Bjørnsmoen Næss NOR NOR 6:38.76200m - 19.46 - (19.4)
600m - 49.96 - (30.5)
1000m - 1:20.67 - (30.7)
1400m - 1:51.23 - (30.5)
1800m - 2:22.16 - (30.9)
2200m - 2:53.16 - (31.0)
2600m - 3:24.52 - (31.3)
3000m - 3:56.04 - (31.5)
3400m - 4:27.79 - (31.7)
3800m - 4:59.62 - (31.8)
4200m - 5:32.00 - (32.3)
4600m - 6:05.03 - (33.0)
5000m - 6:38.76 - (33.7)
15.08 2
14 107 Jordan  Belchos CAN CAN 6:39.06200m - 19.31 - (19.3)
600m - 49.22 - (29.9)
1000m - 1:19.47 - (30.2)
1400m - 1:50.14 - (30.6)
1800m - 2:20.93 - (30.7)
2200m - 2:52.08 - (31.1)
2600m - 3:23.56 - (31.4)
3000m - 3:55.11 - (31.5)
3400m - 4:27.10 - (31.9)
3800m - 4:59.74 - (32.6)
4200m - 5:32.47 - (32.7)
4600m - 6:05.83 - (33.3)
5000m - 6:39.06 - (33.2)
15.38 1
15 104 Bram  Smallenbroek AUT AUT 6:40.33200m - 18.89 - (18.8)
600m - 47.97 - (29.0)
1000m - 1:18.11 - (30.1)
1400m - 1:48.88 - (30.7)
1800m - 2:19.70 - (30.8)
2200m - 2:50.87 - (31.1)
2600m - 3:22.09 - (31.2)
3000m - 3:53.79 - (31.7)
3400m - 4:25.65 - (31.8)
3800m - 4:57.80 - (32.1)
4200m - 5:31.20 - (33.4)
4600m - 6:05.70 - (34.5)
5000m - 6:40.33 - (34.6)
16.65 0
16 133 Nicola  Tumolero ITA ITA 6:40.51200m - 19.73 - (19.7)
600m - 50.89 - (31.1)
1000m - 1:21.98 - (31.0)
1400m - 1:53.22 - (31.2)
1800m - 2:24.52 - (31.3)
2200m - 2:55.97 - (31.4)
2600m - 3:27.87 - (31.9)
3000m - 3:59.73 - (31.8)
3400m - 4:31.92 - (32.1)
3800m - 5:04.00 - (32.0)
4200m - 5:36.27 - (32.2)
4600m - 6:08.55 - (32.2)
5000m - 6:40.51 - (31.9)
16.83 0
17 137 Shane  Williamson JPN JPN 6:41.03200m - 18.31 - (18.3)
600m - 48.01 - (29.7)
1000m - 1:18.05 - (30.0)
1400m - 1:48.74 - (30.6)
1800m - 2:20.05 - (31.3)
2200m - 2:51.58 - (31.5)
2600m - 3:22.85 - (31.2)
3000m - 3:54.88 - (32.0)
3400m - 4:27.52 - (32.6)
3800m - 5:00.15 - (32.6)
4200m - 5:33.00 - (32.8)
4600m - 6:06.82 - (33.8)
5000m - 6:41.03 - (34.2)
17.35 0
18 141 Cheol-Min  Kim KOR KOR 6:41.31200m - 19.53 - (19.5)
600m - 49.63 - (30.1)
1000m - 1:20.81 - (31.1)
1400m - 1:52.31 - (31.5)
1800m - 2:24.25 - (31.9)
2200m - 2:56.35 - (32.1)
2600m - 3:28.48 - (32.1)
3000m - 4:00.49 - (32.0)
3400m - 4:32.56 - (32.0)
3800m - 5:04.77 - (32.2)
4200m - 5:36.91 - (32.1)
4600m - 6:09.17 - (32.2)
5000m - 6:41.31 - (32.1)
17.63 0
19 106 Vitaly  Mikhailov BLR BLR 6:41.64200m - 19.62 - (19.6)
600m - 50.07 - (30.4)
1000m - 1:21.12 - (31.0)
1400m - 1:52.21 - (31.0)
1800m - 2:23.27 - (31.0)
2200m - 2:54.57 - (31.3)
2600m - 3:25.96 - (31.3)
3000m - 3:57.70 - (31.7)
3400m - 4:29.93 - (32.2)
3800m - 5:02.48 - (32.5)
4200m - 5:35.00 - (32.5)
4600m - 6:07.96 - (32.9)
5000m - 6:41.64 - (33.6)
17.96 0
20 117 Rehanbai  Talabuhan CHN CHN 6:41.89200m - 19.95 - (19.9)
600m - 51.05 - (31.1)
1000m - 1:22.51 - (31.4)
1400m - 1:54.56 - (32.0)
1800m - 2:26.65 - (32.0)
2200m - 2:58.53 - (31.8)
2600m - 3:30.13 - (31.6)
3000m - 4:01.88 - (31.7)
3400m - 4:33.85 - (31.9)
3800m - 5:05.78 - (31.9)
4200m - 5:37.59 - (31.8)
4600m - 6:09.81 - (32.2)
5000m - 6:41.89 - (32.0)
18.21 0
21 177 KC  Boutiette USA USA 6:41.91200m - 19.34 - (19.3)
600m - 49.80 - (30.4)
1000m - 1:20.72 - (30.9)
1400m - 1:52.05 - (31.3)
1800m - 2:23.66 - (31.6)
2200m - 2:55.69 - (32.0)
2600m - 3:27.81 - (32.1)
3000m - 3:59.99 - (32.1)
3400m - 4:32.14 - (32.1)
3800m - 5:04.40 - (32.2)
4200m - 5:36.70 - (32.3)
4600m - 6:09.20 - (32.5)
5000m - 6:41.91 - (32.7)
18.23 0
22 134 Seitaro  Ichinohe JPN JPN 6:42.40200m - 18.75 - (18.7)
600m - 50.24 - (31.4)
1000m - 1:21.38 - (31.1)
1400m - 1:52.98 - (31.6)
1800m - 2:24.45 - (31.4)
2200m - 2:56.50 - (32.0)
2600m - 3:28.61 - (32.1)
3000m - 4:01.19 - (32.5)
3400m - 4:33.02 - (31.8)
3800m - 5:05.31 - (32.2)
4200m - 5:37.44 - (32.1)
4600m - 6:10.56 - (33.1)
5000m - 6:42.40 - (31.8)
18.72 0
23 164 Piotr  Puszkarski POL POL 6:42.95200m - 19.58 - (19.5)
600m - 50.49 - (30.9)
1000m - 1:21.64 - (31.1)
1400m - 1:53.13 - (31.4)
1800m - 2:24.66 - (31.5)
2200m - 2:56.12 - (31.4)
2600m - 3:27.51 - (31.3)
3000m - 3:59.03 - (31.5)
3400m - 4:30.77 - (31.7)
3800m - 5:02.81 - (32.0)
4200m - 5:35.34 - (32.5)
4600m - 6:08.56 - (33.2)
5000m - 6:42.95 - (34.3)
19.27 0
24 110 Alec  Janssens CAN CAN 6:43.18200m - 19.66 - (19.6)
600m - 50.06 - (30.4)
1000m - 1:21.17 - (31.1)
1400m - 1:52.67 - (31.5)
1800m - 2:24.07 - (31.4)
2200m - 2:55.27 - (31.2)
2600m - 3:26.55 - (31.2)
3000m - 3:58.27 - (31.7)
3400m - 4:30.32 - (32.0)
3800m - 5:02.97 - (32.6)
4200m - 5:36.03 - (33.0)
4600m - 6:09.48 - (33.4)
5000m - 6:43.18 - (33.7)
19.50 0
25 112 Stefan  Waples CAN CAN 6:44.40200m - 19.89 - (19.8)
600m - 50.86 - (30.9)
1000m - 1:21.73 - (30.8)
1400m - 1:53.11 - (31.3)
1800m - 2:24.18 - (31.0)
2200m - 2:55.92 - (31.7)
2600m - 3:27.52 - (31.6)
3000m - 3:59.83 - (32.3)
3400m - 4:32.34 - (32.5)
3800m - 5:04.99 - (32.6)
4200m - 5:38.11 - (33.1)
4600m - 6:11.12 - (33.0)
5000m - 6:44.40 - (33.2)
20.72 0
26 128 Konrád  Nagy HUN HUN 6:44.93200m - 19.25 - (19.2)
600m - 49.83 - (30.5)
1000m - 1:21.15 - (31.3)
1400m - 1:52.34 - (31.1)
1800m - 2:23.80 - (31.4)
2200m - 2:55.12 - (31.3)
2600m - 3:26.93 - (31.8)
3000m - 3:59.13 - (32.2)
3400m - 4:31.70 - (32.5)
3800m - 5:04.64 - (32.9)
4200m - 5:37.73 - (33.0)
4600m - 6:11.44 - (33.7)
5000m - 6:44.93 - (33.4)
21.25 0
27 115 Yiming  Liu CHN CHN 6:44.96200m - 18.98 - (18.9)
600m - 49.71 - (30.7)
1000m - 1:21.46 - (31.7)
1400m - 1:53.05 - (31.5)
1800m - 2:24.49 - (31.4)
2200m - 2:56.00 - (31.5)
2600m - 3:27.49 - (31.4)
3000m - 3:58.92 - (31.4)
3400m - 4:30.93 - (32.0)
3800m - 5:03.75 - (32.8)
4200m - 5:37.23 - (33.4)
4600m - 6:10.98 - (33.7)
5000m - 6:44.96 - (33.9)
21.28 0
28 131 Andrea  Stefani ITA ITA 6:45.57200m - 19.76 - (19.7)
600m - 51.31 - (31.5)
1000m - 1:23.08 - (31.7)
1400m - 1:54.71 - (31.6)
1800m - 2:26.32 - (31.6)
2200m - 2:58.03 - (31.7)
2600m - 3:29.86 - (31.8)
3000m - 4:02.02 - (32.1)
3400m - 4:34.51 - (32.4)
3800m - 5:07.12 - (32.6)
4200m - 5:40.21 - (33.0)
4600m - 6:12.94 - (32.7)
5000m - 6:45.57 - (32.6)
21.89 0
29 174 Martin  Hänggi SUI SUI 6:46.23200m - 20.10 - (20.1)
600m - 51.72 - (31.6)
1000m - 1:23.91 - (32.1)
1400m - 1:55.91 - (32.0)
1800m - 2:27.94 - (32.0)
2200m - 2:59.85 - (31.9)
2600m - 3:32.00 - (32.1)
3000m - 4:04.26 - (32.2)
3400m - 4:36.68 - (32.4)
3800m - 5:09.26 - (32.5)
4200m - 5:41.96 - (32.7)
4600m - 6:14.07 - (32.1)
5000m - 6:46.23 - (32.1)
22.55 0
30 103 Linus  Heidegger AUT AUT 6:46.31200m - 19.94 - (19.9)
600m - 51.69 - (31.7)
1000m - 1:22.98 - (31.2)
1400m - 1:54.35 - (31.3)
1800m - 2:25.63 - (31.2)
2200m - 2:57.29 - (31.6)
2600m - 3:29.12 - (31.8)
3000m - 4:01.48 - (32.3)
3400m - 4:33.98 - (32.5)
3800m - 5:06.90 - (32.9)
4200m - 5:40.12 - (33.2)
4600m - 6:12.85 - (32.7)
5000m - 6:46.31 - (33.4)
22.63 0
31 142 Byung-Wook  Ko KOR KOR 6:47.80200m - 20.14 - (20.1)
600m - 51.06 - (30.9)
1000m - 1:22.29 - (31.2)
1400m - 1:53.45 - (31.1)
1800m - 2:24.83 - (31.3)
2200m - 2:56.41 - (31.5)
2600m - 3:28.38 - (31.9)
3000m - 4:00.64 - (32.2)
3400m - 4:33.22 - (32.5)
3800m - 5:06.00 - (32.7)
4200m - 5:39.52 - (33.5)
4600m - 6:12.85 - (33.3)
5000m - 6:47.80 - (34.9)
24.12 0
32 159 Reyon  Kay NZL NZL 6:48.43200m - 19.92 - (19.9)
600m - 51.28 - (31.3)
1000m - 1:23.18 - (31.9)
1400m - 1:55.35 - (32.1)
1800m - 2:27.22 - (31.8)
2200m - 2:58.79 - (31.5)
2600m - 3:30.58 - (31.7)
3000m - 4:02.34 - (31.7)
3400m - 4:34.48 - (32.1)
3800m - 5:07.11 - (32.6)
4200m - 5:40.75 - (33.6)
4600m - 6:14.72 - (33.9)
5000m - 6:48.43 - (33.7)
24.75 0
33 120 Viktor-Hald  Thorup DEN DEN 6:48.79200m - 19.81 - (19.8)
600m - 49.81 - (30.0)
1000m - 1:20.06 - (30.2)
1400m - 1:50.95 - (30.8)
1800m - 2:21.90 - (30.9)
2200m - 2:53.04 - (31.1)
2600m - 3:24.48 - (31.4)
3000m - 3:56.44 - (31.9)
3400m - 4:28.76 - (32.3)
3800m - 5:02.08 - (33.3)
4200m - 5:37.27 - (35.1)
4600m - 6:13.55 - (36.2)
5000m - 6:48.79 - (35.2)
25.11 0
34 138 Maxim  Baklashkin KAZ KAZ 6:49.64200m - 19.54 - (19.5)
600m - 51.35 - (31.8)
1000m - 1:23.56 - (32.2)
1400m - 1:55.83 - (32.2)
1800m - 2:28.07 - (32.2)
2200m - 3:00.78 - (32.7)
2600m - 3:33.77 - (32.9)
3000m - 4:06.79 - (33.0)
3400m - 4:39.31 - (32.5)
3800m - 5:11.66 - (32.3)
4200m - 5:44.09 - (32.4)
4600m - 6:16.41 - (32.3)
5000m - 6:49.64 - (33.2)
25.96 0
35 136 Tomoya  Watanabe JPN JPN 6:49.69200m - 19.53 - (19.5)
600m - 51.12 - (31.5)
1000m - 1:22.82 - (31.7)
1400m - 1:54.78 - (31.9)
1800m - 2:26.93 - (32.1)
2200m - 2:59.62 - (32.6)
2600m - 3:32.50 - (32.8)
3000m - 4:05.68 - (33.1)
3400m - 4:38.39 - (32.7)
3800m - 5:11.17 - (32.7)
4200m - 5:43.93 - (32.7)
4600m - 6:16.60 - (32.6)
5000m - 6:49.69 - (33.0)
26.01 0
36 132 Luca  Stefani ITA ITA 6:51.23200m - 19.57 - (19.5)
600m - 51.08 - (31.5)
1000m - 1:22.81 - (31.7)
1400m - 1:54.51 - (31.7)
1800m - 2:25.96 - (31.4)
2200m - 2:58.02 - (32.0)
2600m - 3:30.11 - (32.0)
3000m - 4:02.36 - (32.2)
3400m - 4:35.08 - (32.7)
3800m - 5:08.22 - (33.1)
4200m - 5:42.20 - (33.9)
4600m - 6:16.39 - (34.1)
5000m - 6:51.23 - (34.8)
27.55 0
37 114 Bailin  Li CHN CHN 6:51.53200m - 19.93 - (19.9)
600m - 51.44 - (31.5)
1000m - 1:23.46 - (32.0)
1400m - 1:56.24 - (32.7)
1800m - 2:29.29 - (33.0)
2200m - 3:01.75 - (32.4)
2600m - 3:34.52 - (32.7)
3000m - 4:06.96 - (32.4)
3400m - 4:39.54 - (32.5)
3800m - 5:12.74 - (33.2)
4200m - 5:45.90 - (33.1)
4600m - 6:18.72 - (32.8)
5000m - 6:51.53 - (32.8)
27.85 0
38 119 Stefan  Due Schmidt DEN DEN 6:52.77200m - 19.79 - (19.7)
600m - 51.83 - (32.0)
1000m - 1:24.72 - (32.8)
1400m - 1:57.37 - (32.6)
1800m - 2:30.27 - (32.9)
2200m - 3:02.62 - (32.3)
2600m - 3:35.59 - (32.9)
3000m - 4:08.31 - (32.7)
3400m - 4:41.22 - (32.9)
3800m - 5:13.92 - (32.6)
4200m - 5:46.81 - (32.8)
4600m - 6:19.65 - (32.8)
5000m - 6:52.77 - (33.1)
29.09 0
39 175 Livio  Wenger SUI SUI 6:53.37200m - 19.40 - (19.4)
600m - 50.92 - (31.5)
1000m - 1:23.27 - (32.3)
1400m - 1:55.12 - (31.8)
1800m - 2:27.34 - (32.2)
2200m - 2:59.55 - (32.2)
2600m - 3:32.09 - (32.5)
3000m - 4:04.77 - (32.6)
3400m - 4:37.97 - (33.2)
3800m - 5:11.04 - (33.0)
4200m - 5:44.47 - (33.4)
4600m - 6:18.77 - (34.3)
5000m - 6:53.37 - (34.6)
29.69 0
40 161 Roland  Cieslak POL POL 7:00.41200m - 19.93 - (19.9)
600m - 50.85 - (30.9)
1000m - 1:22.36 - (31.5)
1400m - 1:54.19 - (31.8)
1800m - 2:26.91 - (32.7)
2200m - 3:00.16 - (33.2)
2600m - 3:33.76 - (33.6)
3000m - 4:07.69 - (33.9)
3400m - 4:41.92 - (34.2)
3800m - 5:16.48 - (34.5)
4200m - 5:51.06 - (34.5)
4600m - 6:25.84 - (34.7)
5000m - 7:00.41 - (34.5)
36.73 0